sat.trackr.live / text

‹ back to catalog

KOREASAT 5 (MUGUNGWHA 5)

NORAD 29349 · 2006-034A

PAYLOAD ACTIVE UNKNOWN

§ Identity

Operator
Country
SKOR
Launch date
2006-08-22
Launch site
SEAL
Launch vehicle
Mass (kg)
RCS (m²)
25.12

Purposes: comms

External: N2YO · Heavens-Above · Gunter

§ Orbital elements

Epoch: 2026-05-25T00:51:06.241824Z

Period
1,436.10 min
Inclination
1.7279°
Eccentricity
0.0001802
Mean motion
1.00271436 rev/d
Perigee alt
35,779.1 km
Apogee alt
35,794.3 km
Semi-major
42,164.8 km
B*
0.0000e+0
RAAN
83.2550°
Arg perigee
10.8691°
Mean anomaly
274.3344°
Rev number
4,108

§ Raw data

KOREASAT 5 (MUGUNGWHA 5)1 29349U 06034A   26145.03548891 -.00000360  00000+0  00000+0 0  99942 29349   1.7279  83.2550 0001802  10.8691 274.3344  1.00271436 41088

JSON: /api/v1/satellites/29349 · /tle

For live sub-satellite position, see the globe view (requires WebGL).

§ Visibility from observer

Set your observer location to see the next 7 days of passes ≥ 10°. The values pass through the URL so the page stays shareable.

No JS? Fill the form by hand. The geolocation button needs JavaScript.